Chippewa, MI

4:49 PM EDT on October 19, 2019 (GMT -0400)
Chippewa County International

Weather History for KCIU - August, 2019

Change the Weather History Date:

Thursday, August 15, 2019

  Actual Average Record
Temperature  
Mean Temperature 60 °F -  
Max Temperature 75 °F 76 °F 87 °F (1991)
Min Temperature 48 °F 53 °F 34 °F (1992)
Degree Days  
Heating Degree Days 4    
Growing Degree Days 10 (Base 50)    
Moisture  
Dew Point 51 °F    
Average Humidity 77    
Maximum Humidity 100    
Minimum Humidity 48    
Precipitation  
Precipitation 0.00 in - - ()
Sea Level Pressure  
Sea Level Pressure 30.03 in    
Wind  
Wind Speed 4 mph (SSW)    
Max Wind Speed 13 mph    
Max Gust Speed 16 mph    
Visibility 9 miles    
Events      
Averages and records for this station are not official NWS values.
T = Trace of Precipitation, MM = Missing Value Source: NWS Daily Summary

Daily Weather History Graph

Daily Weather History Graph

Search for Another Location

Airport or City:

Astronomy

Aug. 15, 2019 Rise Set
Actual Time 6:36 AM EDT 8:47 PM EDT
Civil Twilight 6:03 AM EDT 9:20 PM EDT
Nautical Twilight 5:22 AM EDT 10:00 PM EDT
Astronomical Twilight 4:37 AM EDT 10:45 PM EDT
Moon 9:16 PM EDT (8/15) 6:27 AM EDT (8/15)
Length of Visible Light 15h 16m
Length of Day
14h 10m
Full, 100% of the Moon is Illuminated
Aug 15
Full
Aug 23
Last Quarter
Aug 30
New
Sep 5
First Quarter
Sep 14
Full

Hourly Weather History & Observations

Time (EDT) Temp. Dew Point Humidity Pressure Visibility Wind Dir Wind Speed Gust Speed Precip Events Conditions
12:56 AM 50.0 °F 48.0 °F 93% 30.06 in 10.0 mi West 3.5 mph - N/A   Clear
1:56 AM 51.1 °F 48.0 °F 89% 30.06 in 10.0 mi West 4.6 mph - N/A   Clear
2:56 AM 50.0 °F 46.9 °F 89% 30.06 in 10.0 mi West 3.5 mph - N/A   Clear
3:56 AM 48.0 °F 46.0 °F 93% 30.05 in 10.0 mi Calm Calm - N/A   Clear
4:56 AM 48.0 °F 48.0 °F 100% 30.05 in 8.0 mi Calm Calm - N/A   Clear
5:56 AM 50.0 °F 48.9 °F 96% 30.05 in 10.0 mi Calm Calm - N/A   Clear
6:26 AM 48.2 °F 48.2 °F 100% 30.05 in 2.5 mi Calm Calm - N/A   Clear
6:36 AM 48.2 °F 46.4 °F 93% 30.05 in 1.5 mi Calm Calm - N/A   Clear
6:47 AM 48.2 °F 46.4 °F 93% 30.05 in 10.0 mi Calm Calm - N/A   Clear
6:56 AM 48.0 °F 46.0 °F 93% 30.05 in 10.0 mi WNW 4.6 mph - N/A   Clear
7:56 AM 52.0 °F 50.0 °F 93% 30.06 in 10.0 mi Calm Calm - N/A   Clear
8:56 AM 60.1 °F 54.0 °F 80% 30.07 in 10.0 mi Calm Calm - N/A   Partly Cloudy
9:56 AM 64.0 °F 54.0 °F 70% 30.06 in 10.0 mi South 4.6 mph - N/A   Mostly Cloudy
10:56 AM 64.9 °F 54.0 °F 68% 30.06 in 10.0 mi Variable 4.6 mph - N/A   Overcast
11:56 AM 68.0 °F 52.0 °F 56% 30.05 in 10.0 mi WSW 8.1 mph - N/A   Partly Cloudy
12:56 PM 70.0 °F 53.1 °F 55% 30.04 in 10.0 mi Variable 3.5 mph - N/A   Mostly Cloudy
1:56 PM 71.1 °F 53.1 °F 53% 30.03 in 10.0 mi Variable 4.6 mph - N/A   Overcast
2:56 PM 71.1 °F 52.0 °F 51% 30.01 in 10.0 mi Variable 3.5 mph - N/A   Scattered Clouds
3:56 PM 73.0 °F 52.0 °F 48% 30.00 in 10.0 mi SW 8.1 mph 16.1 mph N/A   Overcast
4:56 PM 73.9 °F 53.1 °F 48% 29.99 in 10.0 mi SW 12.7 mph - N/A   Mostly Cloudy
5:56 PM 71.1 °F 55.0 °F 57% 30.00 in 10.0 mi South 10.4 mph - N/A   Clear
6:56 PM 69.1 °F 54.0 °F 58% 29.99 in 10.0 mi South 10.4 mph 16.1 mph N/A   Overcast
7:56 PM 66.0 °F 52.0 °F 60% 29.99 in 10.0 mi South 8.1 mph - N/A   Partly Cloudy
8:56 PM 62.1 °F 52.0 °F 70% 29.99 in 10.0 mi South 5.8 mph - N/A   Clear
9:56 PM 59.0 °F 54.0 °F 83% 29.99 in 10.0 mi SSE 8.1 mph - N/A   Clear
10:56 PM 59.0 °F 55.0 °F 87% 29.99 in 10.0 mi South 4.6 mph - N/A   Clear
11:56 PM 57.9 °F 55.9 °F 93% 29.99 in 10.0 mi South 5.8 mph - N/A   Clear